Location: Bourg-d�Oueil
(42.8588°N, 0.4991°E)
Time: 17:06:36
(UTC+00:00)

Lacrosse 5 rocket - Pass Details

Date: 16 June 2021
Orbit: 460 x 633 km, 57.0° (Epoch: 03 August)

Event Time Altitude Azimuth Distance (km) Brightness Sun altitude
Exits shadow 20:47:30 - 190° (S) 2,366 4.2 -10.5°
Reaches altitude 10° 20:49:31 10° 177° (S) 1,656 3.3 -10.7°
Maximum altitude 20:52:23 21° 126° (SE) 1,099 2.2 -11.1°
Drops below altitude 10° 20:55:12 10° 75° (ENE) 1,622 3.5 -11.4°
Sets 20:57:38 0° 59° (ENE) 2,491 4.6 -11.7°
